Location: *
(45.9500°N, 9.0833°E)
Time: 18:55:35
(UTC+00:00)

USA 305 - Pass Details

Date: 03 March 2021
Orbit: 567 x 574 km, 54.0° (Epoch: 18 April)

Event Time Altitude Azimuth Distance (km) Brightness Sun altitude
Rises 18:05:14 0° 279° (W) 2,779 8.6 -9.9°
Reaches altitude 10° 18:07:44 10° 290° (WNW) 1,880 6.8 -10.3°
Maximum altitude 18:11:29 29° 352° (N) 1,067 4.4 -10.9°
Enters shadow 18:15:14 10° 53° (NE) 1,874 5.1 -11.6°
